Вернуться в каталог

SL-8 R/B

АктивенPO
NORAD 23604·ROCKET BODY·🇷🇺 Russia

Запущен Jul 5, 1995 с Plesetsk Cosmodrome

Loading…

Ближайшие Пролёты (ближайшие 24 часа)

TLE

СвежийSource: Space-Track

Эпоха: Sep 14, 2026, 03:07 UTC

1 23604U 95032B   26257.13019034  .00000073  00000-0  60817-4 0  9993
2 23604  82.9076 164.8389 0023487 196.8658 163.1720 13.74570633564504

Отслеживайте SL-8 R/B в реальном времени с AllMySat

Download on the App Store